User: anonymous   Login
Location: Camp at the Woods
(43.2055°N, 93.0905°W)
Time: 13:41:33
(UTC+00:00)
Language:

SJ-7 - Orbit

View from above orbital plane
View from above orbital plane
View from above satellite
View from above satellite

Ground track
Ground track

The orbit data is extracted from the following two-line orbital elements,

1 28737U 05024A   24103.94941346  .00005751  00000-0  41650-3 0  9995
2 28737  97.7714 108.9652 0020718 236.8888 123.0349 15.04211282 27755
Epoch (UTC): 12 April 2024 22:47:09
Eccentricity: 0.0020718
inclination: 97.7714°
perigee height: 539 km
apogee height: 568 km
right ascension of ascending node: 108.9652°
argument of perigee: 236.8888°
revolutions per day: 15.04211282
mean anomaly at epoch: 123.0349°
orbit number at epoch: 2775

The dashed part of the orbit path shows where the satellite is in the earth's shadow,  

DLR